Tracking 28565 objects as of 3-Mar-2024
HD Live streaming from Space Station
objects crossing your sky now

STARLINK-30090

Track STARLINK-30090 now!
10-day predictions
STARLINK-30090 is classified as:


NORAD ID: 56293
Int'l Code: 2023-056H
Perigee: 565.5 km
Apogee: 567.0 km
Inclination: 43.0 °
Period: 95.8 minutes
Semi major axis: 6937 km
RCS: Unknown
Launch date: April 19, 2023
Source: United States (US)
Launch site: AIR FORCE EASTERN TEST RANGE (AFETR)
Your satellite tracking list
Your tracking list is empty




NASA's NSSDC Master Catalog

Two Line Element Set (TLE):
1 56293U 23056H   24063.54547991 -.00000350  00000-0 -10818-4 0  9992
2 56293  43.0014 250.6930 0001066 283.8738  76.1986 15.02527660 49280
Source of the keplerian elements: AFSPC